CFG321 EDDF-EDDH

Flight info

Callsign CFG321
Flight time 0h 48m
Altitude 33000
Route MARUN3W/25C MARUN Y150 TOLGI DCT SAS/N0447F320 P605 NOLGO NOLGO6A
Aircraft A321/M-SDE3FGHIRWY/L

Departure

Time 2026-05-07 17:22
Airport Frankfurt Main Airport (EDDF)

Arrival

Time 2026-05-07 18:11
Airport Hamburg Helmut Schmidt Airport (EDDH)
Time Latitude Longitude Altitude Speed Heading
2026-05-07 16:36 50.04406 8.56220 356 ft 0 kts 160°
2026-05-07 17:11 50.04414 8.56216 363 ft 3 kts 161°
2026-05-07 17:11 50.04433 8.56207 358 ft 3 kts 171°
2026-05-07 17:12 50.04453 8.56205 359 ft 3 kts 188°
2026-05-07 17:12 50.04471 8.56213 361 ft 3 kts 221°
2026-05-07 17:12 50.04479 8.56227 356 ft 3 kts 249°
2026-05-07 17:12 50.04479 8.56228 356 ft 34 kts 249°
2026-05-07 17:15 50.04459 8.56147 358 ft 11 kts 249°
2026-05-07 17:16 50.04430 8.56044 360 ft 10 kts 235°
2026-05-07 17:16 50.04369 8.56041 363 ft 10 kts 161°
2026-05-07 17:16 50.04305 8.56086 363 ft 10 kts 139°
2026-05-07 17:16 50.04284 8.56191 355 ft 10 kts 117°
2026-05-07 17:17 50.04222 8.56252 356 ft 8 kts 159°
2026-05-07 17:17 50.04219 8.56253 358 ft 0 kts 159°
2026-05-07 17:18 50.04219 8.56254 358 ft 0 kts 159°
2026-05-07 17:18 50.04168 8.56284 356 ft 16 kts 153°
2026-05-07 17:18 50.04164 8.56433 358 ft 14 kts 71°
2026-05-07 17:18 50.04198 8.56575 362 ft 13 kts 69°
2026-05-07 17:19 50.04228 8.56700 364 ft 11 kts 70°
2026-05-07 17:19 50.04252 8.56805 364 ft 11 kts 69°
2026-05-07 17:19 50.04294 8.56979 364 ft 22 kts 70°
2026-05-07 17:19 50.04359 8.57252 367 ft 31 kts 70°
2026-05-07 17:20 50.04446 8.57603 369 ft 38 kts 70°
2026-05-07 17:20 50.04537 8.57992 366 ft 38 kts 69°
2026-05-07 17:20 50.04626 8.58365 370 ft 26 kts 69°
2026-05-07 17:20 50.04642 8.58432 369 ft 0 kts 69°
2026-05-07 17:21 50.04645 8.58445 374 ft 6 kts 69°
2026-05-07 17:21 50.04634 8.58560 370 ft 20 kts 130°
2026-05-07 17:21 50.04508 8.58608 371 ft 17 kts 210°
2026-05-07 17:21 50.04452 8.58443 370 ft 18 kts 248°
2026-05-07 17:22 50.04374 8.58131 371 ft 63 kts 249°
2026-05-07 17:22 50.04127 8.57123 365 ft 132 kts 250°
2026-05-07 17:22 50.03754 8.55548 540 ft 164 kts 250°
2026-05-07 17:22 50.03374 8.53936 1366 ft 156 kts 250°
2026-05-07 17:23 50.02993 8.52376 2112 ft 153 kts 251°
2026-05-07 17:23 50.02602 8.50849 2840 ft 151 kts 250°
2026-05-07 17:23 50.02166 8.49384 3557 ft 148 kts 240°
2026-05-07 17:23 50.01403 8.48376 4290 ft 146 kts 205°
2026-05-07 17:24 50.00414 8.47999 4942 ft 148 kts 191°
2026-05-07 17:24 49.99390 8.47859 5560 ft 148 kts 185°
2026-05-07 17:24 49.98321 8.47682 6006 ft 164 kts 191°
2026-05-07 17:24 49.97127 8.47406 6357 ft 184 kts 191°
2026-05-07 17:25 49.95802 8.47004 6609 ft 204 kts 199°
2026-05-07 17:25 49.94367 8.46304 6845 ft 229 kts 199°
2026-05-07 17:25 49.92764 8.45498 7242 ft 253 kts 206°
2026-05-07 17:25 49.91378 8.43858 8169 ft 254 kts 234°
2026-05-07 17:26 49.90664 8.41387 9130 ft 255 kts 263°
2026-05-07 17:26 49.90828 8.38662 10083 ft 258 kts 291°
2026-05-07 17:26 49.91849 8.36384 10981 ft 263 kts 320°
2026-05-07 17:26 49.93466 8.35011 11838 ft 272 kts 335°
2026-05-07 17:27 49.95284 8.33824 12267 ft 296 kts 336°
2026-05-07 17:27 49.97270 8.32554 12632 ft 321 kts 336°
2026-05-07 17:27 49.99407 8.31183 12943 ft 342 kts 336°
2026-05-07 17:27 50.01648 8.29809 12999 ft 349 kts 341°
2026-05-07 17:28 50.04037 8.29042 13014 ft 354 kts 353°
2026-05-07 17:28 50.06533 8.29116 13686 ft 362 kts
2026-05-07 17:28 50.09000 8.29990 14591 ft 367 kts 16°
2026-05-07 17:28 50.11436 8.31245 15413 ft 371 kts 17°
2026-05-07 17:29 50.13891 8.32518 16216 ft 375 kts 17°
2026-05-07 17:29 50.16350 8.33800 17012 ft 379 kts 17°
2026-05-07 17:29 50.18897 8.35126 17817 ft 384 kts 17°
2026-05-07 17:29 50.21410 8.36439 18558 ft 388 kts 17°
2026-05-07 17:30 50.23981 8.37794 19240 ft 392 kts 17°
2026-05-07 17:30 50.26577 8.39170 19930 ft 396 kts 17°
2026-05-07 17:30 50.29195 8.40555 20616 ft 399 kts 17°
2026-05-07 17:30 50.31836 8.41963 21290 ft 402 kts 17°
2026-05-07 17:31 50.34441 8.43375 21967 ft 406 kts 18°
2026-05-07 17:31 50.37165 8.44869 22654 ft 410 kts 18°
2026-05-07 17:31 50.39855 8.46352 23310 ft 413 kts 18°
2026-05-07 17:31 50.42580 8.47854 23899 ft 417 kts 18°
2026-05-07 17:32 50.45329 8.49368 24445 ft 420 kts 18°
2026-05-07 17:32 50.48100 8.50879 25017 ft 423 kts 17°
2026-05-07 17:32 50.50909 8.52315 25566 ft 426 kts 16°
2026-05-07 17:32 50.53748 8.53677 26109 ft 428 kts 15°
2026-05-07 17:33 50.56570 8.54986 26646 ft 431 kts 15°
2026-05-07 17:33 50.59465 8.56321 27170 ft 434 kts 15°
2026-05-07 17:33 50.62370 8.57674 27704 ft 437 kts 15°
2026-05-07 17:33 50.65294 8.59053 28223 ft 440 kts 15°
2026-05-07 17:34 50.68234 8.60460 28722 ft 443 kts 16°
2026-05-07 17:34 50.71194 8.61891 29214 ft 446 kts 16°
2026-05-07 17:34 50.74173 8.63338 29724 ft 449 kts 16°
2026-05-07 17:34 50.77153 8.64843 30198 ft 452 kts 20°
2026-05-07 17:35 50.80003 8.66954 30715 ft 453 kts 28°
2026-05-07 17:35 50.82620 8.69728 30964 ft 454 kts 38°
2026-05-07 17:35 50.86883 8.77072 31024 ft 455 kts 52°
2026-05-07 17:36 50.90691 8.85076 31024 ft 455 kts 52°
2026-05-07 17:36 50.94514 8.93052 31029 ft 455 kts 52°
2026-05-07 17:37 50.98336 9.01051 31030 ft 455 kts 52°
2026-05-07 17:37 51.02142 9.09061 31034 ft 454 kts 52°
2026-05-07 17:38 51.05906 9.17040 31036 ft 454 kts 52°
2026-05-07 17:38 51.10124 9.24468 31037 ft 452 kts 37°
2026-05-07 17:39 51.15539 9.29382 31037 ft 449 kts 18°
2026-05-07 17:39 51.21589 9.31758 31041 ft 448 kts 11°
2026-05-07 17:40 51.27686 9.33870 31035 ft 448 kts 11°
2026-05-07 17:40 51.33781 9.36005 31031 ft 448 kts 11°
2026-05-07 17:41 51.39866 9.38155 31037 ft 448 kts 11°
2026-05-07 17:41 51.45959 9.40349 31037 ft 449 kts 12°
2026-05-07 17:42 51.52047 9.42564 31037 ft 449 kts 12°
2026-05-07 17:42 51.58137 9.44791 31037 ft 449 kts 12°
2026-05-07 17:43 51.64215 9.47016 31040 ft 449 kts 12°
2026-05-07 17:43 51.70317 9.49252 31040 ft 449 kts 12°
2026-05-07 17:44 51.76399 9.51486 31045 ft 449 kts 12°
2026-05-07 17:44 51.82500 9.53732 31048 ft 449 kts 12°
2026-05-07 17:45 51.88592 9.55979 31045 ft 449 kts 12°
2026-05-07 17:45 51.94687 9.58235 31049 ft 448 kts 12°
2026-05-07 17:46 51.97698 9.59351 30772 ft 439 kts 12°
2026-05-07 17:46 52.00664 9.60452 30125 ft 437 kts 12°
2026-05-07 17:46 52.03633 9.61554 29190 ft 438 kts 12°
2026-05-07 17:46 52.06613 9.62662 28196 ft 441 kts 12°
2026-05-07 17:47 52.09602 9.63775 27427 ft 439 kts 12°
2026-05-07 17:47 52.12561 9.64884 26743 ft 435 kts 12°
2026-05-07 17:47 52.15503 9.65986 26063 ft 432 kts 12°
2026-05-07 17:47 52.18418 9.67077 25401 ft 429 kts 12°
2026-05-07 17:48 52.21322 9.68164 25054 ft 427 kts 12°
2026-05-07 17:48 52.24210 9.69247 24440 ft 424 kts 12°
2026-05-07 17:48 52.27072 9.70324 23807 ft 421 kts 12°
2026-05-07 17:48 52.29908 9.71397 23097 ft 417 kts 12°
2026-05-07 17:49 52.32724 9.72462 22399 ft 413 kts 12°
2026-05-07 17:49 52.35514 9.73518 21729 ft 409 kts 12°
2026-05-07 17:49 52.38228 9.74542 21087 ft 405 kts 12°
2026-05-07 17:49 52.40996 9.75585 20441 ft 401 kts 12°
2026-05-07 17:50 52.43669 9.76593 19827 ft 398 kts 12°
2026-05-07 17:50 52.46352 9.77609 19224 ft 394 kts 12°
2026-05-07 17:50 52.48971 9.78606 18646 ft 391 kts 12°
2026-05-07 17:50 52.51609 9.79610 18028 ft 387 kts 12°
2026-05-07 17:51 52.54220 9.80605 17389 ft 384 kts 12°
2026-05-07 17:51 52.56804 9.81597 16808 ft 380 kts 12°
2026-05-07 17:51 52.59371 9.82579 16225 ft 376 kts 12°
2026-05-07 17:51 52.61905 9.83547 15658 ft 373 kts 12°
2026-05-07 17:52 52.64421 9.84506 15109 ft 370 kts 12°
2026-05-07 17:52 52.66863 9.85446 14588 ft 366 kts 13°
2026-05-07 17:52 52.69337 9.86418 14053 ft 363 kts 13°
2026-05-07 17:52 52.71790 9.87356 13495 ft 360 kts 12°
2026-05-07 17:53 52.74216 9.88272 12923 ft 357 kts 12°
2026-05-07 17:53 52.76618 9.89183 12386 ft 353 kts 12°
2026-05-07 17:53 52.78969 9.90081 12131 ft 353 kts 13°
2026-05-07 17:53 52.81362 9.91000 11878 ft 352 kts 13°
2026-05-07 17:54 52.83494 9.91822 11647 ft 351 kts 13°
2026-05-07 17:54 52.85950 9.92777 11386 ft 349 kts 13°
2026-05-07 17:54 52.88271 9.93678 11131 ft 337 kts 13°
2026-05-07 17:54 52.90517 9.94549 10883 ft 326 kts 13°
2026-05-07 17:55 52.92686 9.95392 10635 ft 315 kts 13°
2026-05-07 17:55 52.94790 9.96211 10393 ft 306 kts 13°
2026-05-07 17:55 52.96829 9.97005 10148 ft 296 kts 13°
2026-05-07 17:55 52.98799 9.97772 10001 ft 284 kts 13°
2026-05-07 17:56 53.00667 9.98497 9998 ft 267 kts 13°
2026-05-07 17:56 53.02417 9.99178 10000 ft 250 kts 13°
2026-05-07 17:56 53.04061 9.99819 9999 ft 236 kts 13°
2026-05-07 17:56 53.05627 10.00431 10006 ft 233 kts 13°
2026-05-07 17:57 53.07205 10.01048 10004 ft 233 kts 13°
2026-05-07 17:57 53.08270 10.01465 10004 ft 232 kts 13°
2026-05-07 17:57 53.10354 10.02281 10000 ft 232 kts 13°
2026-05-07 17:57 53.11921 10.02891 9738 ft 231 kts 13°
2026-05-07 17:58 53.13479 10.03499 9445 ft 229 kts 14°
2026-05-07 17:58 53.15023 10.04105 9172 ft 227 kts 14°
2026-05-07 17:58 53.16549 10.04705 8883 ft 225 kts 14°
2026-05-07 17:58 53.18072 10.05269 8577 ft 224 kts
2026-05-07 17:59 53.19584 10.04892 8294 ft 223 kts 334°
2026-05-07 17:59 53.20747 10.03189 8027 ft 225 kts 309°
2026-05-07 17:59 53.21644 10.01037 7686 ft 228 kts 305°
2026-05-07 17:59 53.22538 9.98738 7118 ft 241 kts 304°
2026-05-07 18:00 53.23434 9.96376 6562 ft 240 kts 304°
2026-05-07 18:00 53.24304 9.94025 5825 ft 238 kts 304°
2026-05-07 18:00 53.25152 9.91715 5185 ft 228 kts 304°
2026-05-07 18:00 53.25975 9.89464 4992 ft 227 kts 304°
2026-05-07 18:01 53.26798 9.87212 4996 ft 228 kts 304°
2026-05-07 18:01 53.27629 9.84948 4999 ft 229 kts 304°
2026-05-07 18:01 53.28175 9.83462 4863 ft 223 kts 304°
2026-05-07 18:01 53.28981 9.81269 4089 ft 222 kts 304°
2026-05-07 18:02 53.30931 9.77447 3038 ft 218 kts 323°
2026-05-07 18:02 53.32128 9.75876 2998 ft 219 kts 324°
2026-05-07 18:02 53.33335 9.74311 2999 ft 220 kts 324°
2026-05-07 18:03 53.34544 9.72745 2996 ft 220 kts 324°
2026-05-07 18:03 53.35762 9.71165 2995 ft 222 kts 324°
2026-05-07 18:03 53.36982 9.69576 2990 ft 223 kts 324°
2026-05-07 18:03 53.38206 9.67981 2996 ft 223 kts 324°
2026-05-07 18:04 53.39440 9.66430 2990 ft 221 kts 334°
2026-05-07 18:04 53.40912 9.65958 2996 ft 216 kts
2026-05-07 18:04 53.42336 9.66661 3007 ft 213 kts 23°
2026-05-07 18:04 53.43618 9.67500 2969 ft 181 kts 24°
2026-05-07 18:05 53.44718 9.68228 2852 ft 163 kts 24°
2026-05-07 18:05 53.45745 9.68907 2637 ft 158 kts 24°
2026-05-07 18:05 53.46810 9.69698 2038 ft 176 kts 36°
2026-05-07 18:05 53.47761 9.71233 1771 ft 208 kts 47°
2026-05-07 18:06 53.48832 9.72980 1614 ft 218 kts 41°
2026-05-07 18:06 53.50204 9.74230 1796 ft 232 kts 25°
2026-05-07 18:06 53.51697 9.75287 2360 ft 228 kts 24°
2026-05-07 18:06 53.53034 9.76358 2585 ft 196 kts 40°
2026-05-07 18:07 53.53763 9.78093 2829 ft 176 kts 69°
2026-05-07 18:07 53.54153 9.80002 3029 ft 168 kts 73°
2026-05-07 18:07 53.54484 9.81844 2833 ft 167 kts 74°
2026-05-07 18:07 53.54948 9.83638 2465 ft 174 kts 48°
2026-05-07 18:08 53.55946 9.84913 1986 ft 186 kts 39°
2026-05-07 18:08 53.56900 9.86439 1467 ft 194 kts 52°
2026-05-07 18:08 53.57779 9.88233 1021 ft 199 kts 51°
2026-05-07 18:08 53.58618 9.89923 1018 ft 176 kts 51°
2026-05-07 18:09 53.59323 9.91339 1018 ft 139 kts 51°
2026-05-07 18:09 53.59886 9.92458 889 ft 118 kts 52°
2026-05-07 18:09 53.60417 9.93508 694 ft 130 kts 49°
2026-05-07 18:09 53.61068 9.94773 579 ft 143 kts 50°
2026-05-07 18:10 53.61669 9.96023 278 ft 132 kts 53°
2026-05-07 18:10 53.62227 9.97170 53 ft 118 kts 50°
2026-05-07 18:10 53.62657 9.98024 42 ft 78 kts 51°
2026-05-07 18:10 53.62981 9.98697 45 ft 65 kts 50°
2026-05-07 18:11 53.63098 9.99069 46 ft 29 kts 93°
2026-05-07 18:11 53.63090 9.99209 47 ft 0 kts 95°
2026-05-07 18:12 53.63088 9.99292 47 ft 10 kts 89°
2026-05-07 18:12 53.63091 9.99339 47 ft 0 kts 79°
2026-05-07 18:13 53.63109 9.99409 47 ft 10 kts 60°
2026-05-07 18:13 53.63151 9.99518 46 ft 12 kts 54°
2026-05-07 18:13 53.63202 9.99627 48 ft 12 kts 49°
2026-05-07 18:13 53.63257 9.99723 49 ft 12 kts 45°
2026-05-07 18:14 53.63315 9.99832 49 ft 13 kts 51°
2026-05-07 18:14 53.63374 9.99954 49 ft 14 kts 50°
2026-05-07 18:14 53.63437 10.00081 49 ft 14 kts 51°
2026-05-07 18:14 53.63449 10.00241 49 ft 12 kts 88°
2026-05-07 18:15 53.63452 10.00317 49 ft 0 kts 86°